GEO-KOMPSAT-2A (43823 NORAD) Tracking and Keplerian Element Data

This shows tracking and keplerian element data for the satellite.

Feedback or suggestion? Click here.




ElementValue
Catalog43823
NameGEO-KOMPSAT-2A
Epoch Orbit2266
Epoch Day34.78053249
Epoch Year2025
RAAN141.8936
Inclination0.013
Eccentricity7.55E-05
Argument of Perigee254.7302
Mean Anonmoly146.7929
Mean Motion1.00271084
Decay Rate-3.4E-06
L11 43823U 18100A 25034.78053249 -.00000340 00000+0 00000+0 0 9998
L22 43823 0.0130 141.8936 0000755 254.7302 146.7929 1.00271084 22665



Live tracking and technical data element details for GEO-KOMPSAT-2A (NORAD 43823). GEO-KOMPSAT-2A can be tracked NOW for your location showing map with azimuth and elevation plus other details from your city location.







IsCatalogInMostPopularTable: catalog: 43823, numindb: 379
Update: records affected: 1



GetName: 43823 GEO-KOMPSAT-2A

Hit Count: updated at: Thu, 15 May 2025 09:05:01 GMT